Weather reports worldwide

Advertisment
Pisa/S. Giusto, Italy (16158): temperature & dewpoint: 18.08.2019 07:00:00 - 24.08.2019 07:00:00 (CEST)Pisa/S. Giusto, Italy (16158): wind speed: 18.08.2019 07:00:00 - 24.08.2019 07:00:00 (CEST)Pisa/S. Giusto, Italy (16158): wind direction: 18.08.2019 07:00:00 - 24.08.2019 07:00:00 (CEST)Pisa/S. Giusto, Italy (16158): reduced air pressure: 18.08.2019 07:00:00 - 24.08.2019 07:00:00 (CEST)Pisa/S. Giusto, Italy (16158): visibility: 18.08.2019 07:00:00 - 24.08.2019 07:00:00 (CEST)Pisa/S. Giusto, Italy (16158): sunshine duration: 18.08.2019 07:00:00 - 24.08.2019 07:00:00 (CEST)
Date & Time tt [°C] td [°C] ff [km/h] ff [kn] dd ppp [hPa] vv [km] sd [min]
24.08.2019 07:00:00 21,0 20,0 11 6 E - 10 -
24.08.2019 06:00:00 21,0 20,0 8 4 ESE - 10 -
24.08.2019 05:00:00 21,0 20,2 5 3 NNE 1018,5 10 -
24.08.2019 04:00:00 21,0 20,0 5 3 ESE - 10 -
24.08.2019 03:00:00 22,0 20,0 8 4 ESE - 10 -
24.08.2019 02:00:00 21,2 20,2 2 1 - 1018,6 10 -
24.08.2019 01:00:00 22,0 21,0 2 1 S - 10 -
24.08.2019 00:00:00 22,0 20,0 4 2 - - 10 -
23.08.2019 23:00:00 22,4 20,7 4 2 - 1018,7 10 -
23.08.2019 22:00:00 23,0 20,0 4 2 - - 10 -
23.08.2019 21:00:00 24,0 19,0 11 6 ESE - 10 -
23.08.2019 20:00:00 25,8 20,4 16 9 ESE 1018,5 10 0
23.08.2019 19:00:00 26,0 20,0 4 2 NE - 10 -
23.08.2019 18:00:00 26,0 19,0 11 6 N - 10 -
23.08.2019 17:00:00 25,2 21,3 15 8 NNW 1018,7 10 0
23.08.2019 16:00:00 24,0 22,0 11 6 NNW - 10 -
23.08.2019 15:00:00 25,0 22,0 11 6 NW - 10 -
23.08.2019 14:00:00 25,2 21,1 11 6 SW 1020,5 10 12
23.08.2019 13:00:00 26,0 20,0 16 9 SW - 10 -
23.08.2019 12:00:00 28,0 16,0 5 3 ENE - 10 -
23.08.2019 11:00:00 26,6 15,3 22 12 E 1018,7 10 18
23.08.2019 10:00:00 26,0 16,0 26 14 E - 10 -
23.08.2019 09:00:00 23,0 17,0 18 10 ESE - 10 -
23.08.2019 08:00:00 22,8 18,4 9 5 S 1018,3 10 0
23.08.2019 07:00:00 23,0 20,0 11 6 ESE - 10 -
23.08.2019 06:00:00 23,0 20,0 9 5 SSE - 10 -
23.08.2019 05:00:00 22,2 20,5 9 5 ESE 1018,3 10 -
23.08.2019 04:00:00 22,0 20,0 8 4 ESE - 10 -
23.08.2019 03:00:00 23,0 21,0 5 3 SE - 10 -
23.08.2019 02:00:00 23,0 20,5 11 6 ESE 1018,8 10 -
23.08.2019 01:00:00 23,0 21,0 8 4 SE - 10 -
23.08.2019 00:00:00 24,0 21,0 5 3 SE - 10 -
22.08.2019 23:00:00 25,4 20,4 5 3 E 1018,4 10 -
22.08.2019 22:00:00 26,0 21,0 16 9 ESE - 10 -
22.08.2019 21:00:00 26,0 21,0 13 7 E - 10 -
22.08.2019 20:00:00 27,8 19,3 21 11 ESE 1017,4 10 0
22.08.2019 19:00:00 29,0 18,0 13 7 ESE - 10 -
22.08.2019 18:00:00 29,0 22,0 11 6 N - 10 -
22.08.2019 17:00:00 30,0 21,1 16 9 NW 1016,7 10 12
22.08.2019 16:00:00 29,0 23,0 15 8 NW - 10 -
22.08.2019 15:00:00 29,0 19,0 13 7 NW - 10 -
22.08.2019 14:00:00 29,0 21,8 15 8 NW 1017,8 10 12
22.08.2019 13:00:00 28,0 22,0 16 9 NW - 10 -
22.08.2019 12:00:00 30,0 19,0 11 6 NNW - 10 -
22.08.2019 11:00:00 26,6 20,9 5 3 E 1018,1 10 54
22.08.2019 10:00:00 25,0 20,0 8 4 WNW - 10 -
22.08.2019 09:00:00 22,0 19,0 4 2 - - 10 -
22.08.2019 08:00:00 20,0 19,0 5 3 ESE 1017,7 10 0
22.08.2019 07:00:00 20,0 19,0 4 2 ESE - 10 -
22.08.2019 06:00:00 20,0 19,0 0 0 N - 10 -
22.08.2019 05:00:00 20,8 20,0 4 2 SE 1017,2 10 -
22.08.2019 04:00:00 21,0 20,0 4 2 SE - 10 -
22.08.2019 03:00:00 21,0 20,0 4 2 ESE - 10 -
22.08.2019 02:00:00 21,4 20,6 4 2 ESE 1017,3 10 -
22.08.2019 01:00:00 22,0 22,0 4 2 N - 10 -
22.08.2019 00:00:00 22,0 21,0 4 2 WSW - 10 -
21.08.2019 23:00:00 24,0 22,3 8 4 SW 1017,1 10 -
21.08.2019 22:00:00 25,0 23,0 4 2 - - 10 -
21.08.2019 21:00:00 26,0 23,0 4 2 WNW - 10 -
21.08.2019 20:00:00 26,8 22,4 8 4 WNW 1016,5 10 60
21.08.2019 19:00:00 28,0 22,0 13 7 WNW - 10 -
21.08.2019 18:00:00 29,0 21,0 15 8 WNW - 10 -
21.08.2019 17:00:00 30,0 20,5 18 10 W 1016,5 10 60
21.08.2019 16:00:00 30,0 20,0 16 9 W - 10 -
21.08.2019 15:00:00 30,0 20,0 15 8 W - 10 -
21.08.2019 14:00:00 29,8 21,7 16 9 W 1017,5 10 60
21.08.2019 13:00:00 30,0 22,0 15 8 WNW - 10 -
21.08.2019 12:00:00 28,0 16,0 4 2 NW - 10 -
21.08.2019 11:00:00 26,0 18,4 5 3 NNW 1018,0 10 60
21.08.2019 10:00:00 25,0 17,0 5 3 SE - 10 -
21.08.2019 09:00:00 22,0 16,0 5 3 ESE - 10 -
21.08.2019 08:00:00 18,2 16,9 5 3 ESE 1017,6 10 0
21.08.2019 07:00:00 17,0 16,0 8 4 ESE - 10 -
21.08.2019 06:00:00 18,0 16,0 8 4 SE - 10 -
21.08.2019 05:00:00 19,6 16,4 5 3 NE 1017,0 10 -
21.08.2019 04:00:00 18,0 17,0 4 2 SSW - 10 -
21.08.2019 03:00:00 19,0 18,0 8 4 SE - 10 -
21.08.2019 02:00:00 20,2 19,2 8 4 E 1017,1 10 -
21.08.2019 01:00:00 20,0 19,0 5 3 SE - 10 -
21.08.2019 00:00:00 20,0 19,0 8 4 SSE - 10 -
20.08.2019 23:00:00 22,4 20,1 4 2 WSW 1017,1 10 -
20.08.2019 22:00:00 23,0 21,0 4 2 NW - 10 -
20.08.2019 21:00:00 24,0 21,0 4 2 NW - 10 -
20.08.2019 20:00:00 28,0 17,5 8 4 WNW 1016,6 10 60
20.08.2019 19:00:00 28,0 16,0 11 6 W - 10 -
20.08.2019 18:00:00 30,0 14,0 13 7 WNW - 10 -
20.08.2019 17:00:00 30,6 12,5 13 7 W 1016,9 10 60
20.08.2019 16:00:00 30,0 14,0 15 8 W - 10 -
20.08.2019 15:00:00 30,0 19,0 15 8 W - 10 -
20.08.2019 14:00:00 30,2 18,6 18 10 W 1017,2 10 60
20.08.2019 13:00:00 30,0 16,0 15 8 W - 10 -
20.08.2019 12:00:00 28,0 17,0 4 2 WSW - 10 -
20.08.2019 11:00:00 24,2 17,9 9 5 E 1017,5 10 60
20.08.2019 10:00:00 23,0 18,0 5 3 - - 10 -
20.08.2019 09:00:00 20,0 16,0 8 4 ESE - 10 -
20.08.2019 08:00:00 17,8 17,3 4 2 SE 1017,5 10 48
20.08.2019 07:00:00 18,0 17,0 5 3 ESE - 10 -
20.08.2019 06:00:00 18,0 18,0 8 4 SE - 10 -
20.08.2019 05:00:00 18,0 17,7 8 4 SE 1016,7 10 -
20.08.2019 04:00:00 18,0 18,0 5 3 E - 10 -
20.08.2019 03:00:00 18,0 18,0 5 3 E - 10 -
20.08.2019 02:00:00 20,0 19,7 5 3 E 1017,7 10 -
20.08.2019 01:00:00 20,0 20,0 5 3 SE - 10 -
20.08.2019 00:00:00 21,0 21,0 2 1 SE - 10 -
19.08.2019 23:00:00 23,0 22,3 2 1 WNW 1017,7 10 -
19.08.2019 22:00:00 24,0 23,0 5 3 WNW - 10 -
19.08.2019 21:00:00 24,0 23,0 8 4 WNW - 10 -
19.08.2019 20:00:00 26,4 22,7 8 4 W 1017,0 10 60
19.08.2019 19:00:00 27,0 23,0 13 7 W - 10 -
19.08.2019 18:00:00 28,0 21,0 15 8 W - 10 -
19.08.2019 17:00:00 28,4 21,2 11 6 WSW 1017,0 10 60
19.08.2019 16:00:00 28,0 21,0 15 8 WNW - 10 -
19.08.2019 15:00:00 29,0 22,0 16 9 W - 10 -
19.08.2019 14:00:00 28,8 20,5 13 7 W 1017,1 10 60
19.08.2019 13:00:00 29,0 21,0 13 7 W - 10 -
19.08.2019 12:00:00 29,0 19,0 8 4 WSW - 10 -
19.08.2019 11:00:00 26,2 20,3 4 2 SSW 1017,2 10 60
19.08.2019 10:00:00 25,0 19,0 5 3 ESE - 10 -
19.08.2019 09:00:00 22,0 17,0 5 3 ESE - 10 -
19.08.2019 08:00:00 17,6 16,5 8 4 SSE 1016,7 10 0
19.08.2019 07:00:00 17,0 16,0 9 5 ESE - 10 -
19.08.2019 06:00:00 17,0 16,0 5 3 ESE - 10 -
19.08.2019 05:00:00 18,0 17,2 2 1 S 1016,4 10 -
19.08.2019 04:00:00 18,0 17,0 8 4 ESE - 10 -
19.08.2019 03:00:00 18,0 18,0 8 4 ESE - 10 -
19.08.2019 02:00:00 19,6 19,0 5 3 E 1016,0 10 -
19.08.2019 01:00:00 20,0 19,0 4 2 SSE - 10 -
19.08.2019 00:00:00 20,0 19,0 8 4 SE - 10 -
18.08.2019 23:00:00 21,8 21,0 4 2 WNW 1016,0 10 -
18.08.2019 22:00:00 22,0 21,0 2 1 WSW - 10 -
18.08.2019 21:00:00 24,0 22,0 8 4 WNW - 10 -
18.08.2019 20:00:00 26,0 21,7 9 5 WNW 1015,8 10 60
18.08.2019 19:00:00 26,0 21,0 9 5 WSW - 10 -
18.08.2019 18:00:00 28,0 22,0 11 6 W - 10 -
18.08.2019 17:00:00 27,6 21,2 16 9 W 1016,9 10 60
18.08.2019 16:00:00 28,0 21,0 16 9 WSW - 10 -
18.08.2019 15:00:00 28,0 21,0 13 7 W - 10 -
18.08.2019 14:00:00 28,0 20,0 15 8 WSW 1017,0 10 60
18.08.2019 13:00:00 28,0 20,0 13 7 W - 10 -
18.08.2019 12:00:00 27,0 19,0 5 3 SSW - 10 -
18.08.2019 11:00:00 25,0 19,6 5 3 SE 1016,9 10 60
18.08.2019 10:00:00 24,0 20,0 5 3 E - 10 -
18.08.2019 09:00:00 23,0 19,0 13 7 ESE - 10 -
18.08.2019 08:00:00 19,0 18,2 5 3 E 1016,7 10 0
18.08.2019 07:00:00 18,0 17,0 8 4 SE - 10 -

tt = temperature
td = dewpoint
ff = wind speed
dd = wind direction
ppp = reduced air pressure
vv = visibility
sd = sunshine duration

Next stations